Time,TemperatureF,DewpointF,PressureIn,WindDirection,WindDirectionDegrees,WindSpeedMPH,WindSpeedGustMPH,Humidity,HourlyPrecipIn,Conditions,Clouds,dailyrainin,SoftwareType,DateUTC
2013-04-29 00:01:00,54.4,46.3,30.03,SE,135,0.0,0.0,74,0.00,,,0.00,WUHU216HW,2013-04-29 04:01:00,
2013-04-29 00:06:00,54.4,46.6,30.03,ENE,68,0.0,0.0,75,0.00,,,0.00,WUHU216HW,2013-04-29 04:06:00,
2013-04-29 00:11:00,54.4,46.6,30.03,SE,135,0.0,0.0,75,0.00,,,0.00,WUHU216HW,2013-04-29 04:11:00,
2013-04-29 00:16:00,54.4,46.6,30.03,SE,135,0.0,0.0,75,0.00,,,0.00,WUHU216HW,2013-04-29 04:16:00,
2013-04-29 00:21:00,54.4,46.6,30.02,SE,135,0.0,0.0,75,0.00,,,0.00,WUHU216HW,2013-04-29 04:21:00,
2013-04-29 00:26:00,54.4,46.6,30.02,SW,225,0.0,0.0,75,0.00,,,0.00,WUHU216HW,2013-04-29 04:26:00,
2013-04-29 00:31:00,54.2,46.8,30.02,SSE,158,0.0,0.0,76,0.01,,,0.02,WUHU216HW,2013-04-29 04:31:00,
2013-04-29 00:36:00,54.0,46.6,30.02,ENE,68,0.0,0.0,76,0.02,,,0.02,WUHU216HW,2013-04-29 04:36:00,
2013-04-29 00:41:00,53.6,46.3,30.02,NE,45,0.0,0.0,76,0.02,,,0.02,WUHU216HW,2013-04-29 04:41:00,
2013-04-29 00:46:00,53.5,46.4,30.02,East,90,0.0,0.0,77,0.03,,,0.04,WUHU216HW,2013-04-29 04:46:00,
2013-04-29 00:51:00,53.3,46.6,30.02,East,90,0.0,0.0,78,0.03,,,0.04,WUHU216HW,2013-04-29 04:51:00,
2013-04-29 00:56:00,52.9,46.3,30.02,ESE,113,0.0,0.0,78,0.03,,,0.04,WUHU216HW,2013-04-29 04:56:00,
2013-04-29 01:01:00,52.9,46.6,30.02,NW,315,0.0,0.0,79,0.03,,,0.04,WUHU216HW,2013-04-29 05:01:00,
2013-04-29 01:06:00,52.9,47.0,30.02,NW,315,0.0,0.0,80,0.04,,,0.05,WUHU216HW,2013-04-29 05:06:00,
2013-04-29 01:11:00,52.7,46.4,30.02,NW,315,0.0,0.0,79,0.04,,,0.05,WUHU216HW,2013-04-29 05:11:00,
2013-04-29 01:16:00,52.6,46.3,30.02,NW,315,0.0,0.0,79,0.04,,,0.05,WUHU216HW,2013-04-29 05:16:00,
2013-04-29 01:21:00,52.6,46.6,30.02,NW,315,0.0,0.0,80,0.04,,,0.05,WUHU216HW,2013-04-29 05:21:00,
2013-04-29 01:26:00,52.4,46.4,30.01,SSW,203,0.0,0.0,80,0.03,,,0.05,WUHU216HW,2013-04-29 05:26:00,
2013-04-29 01:31:00,52.4,47.1,30.01,East,90,0.0,0.0,82,0.03,,,0.05,WUHU216HW,2013-04-29 05:31:00,
2013-04-29 01:36:00,52.2,46.5,30.01,ENE,68,0.0,0.0,81,0.02,,,0.05,WUHU216HW,2013-04-29 05:36:00,
2013-04-29 01:41:00,52.2,47.2,30.01,ENE,68,0.0,0.0,83,0.01,,,0.05,WUHU216HW,2013-04-29 05:41:00,
2013-04-29 01:46:00,52.2,46.9,30.01,East,90,0.0,0.0,82,0.01,,,0.05,WUHU216HW,2013-04-29 05:46:00,
2013-04-29 01:51:00,52.2,47.5,30.01,SE,135,0.0,0.0,84,0.01,,,0.05,WUHU216HW,2013-04-29 05:51:00,
2013-04-29 01:56:00,52.2,47.2,30.01,ENE,68,0.0,0.0,83,0.01,,,0.05,WUHU216HW,2013-04-29 05:56:00,
2013-04-29 02:01:00,52.4,47.7,30.01,North,0,0.0,0.0,84,0.00,,,0.05,WUHU216HW,2013-04-29 06:01:00,
2013-04-29 02:06:00,52.4,47.3,30.01,WSW,248,0.0,0.0,83,0.00,,,0.05,WUHU216HW,2013-04-29 06:06:00,
2013-04-29 02:11:00,52.4,47.1,30.00,East,90,0.0,0.0,82,0.00,,,0.05,WUHU216HW,2013-04-29 06:11:00,
2013-04-29 02:16:00,52.4,47.1,30.00,SE,135,0.0,0.0,82,0.00,,,0.05,WUHU216HW,2013-04-29 06:16:00,
2013-04-29 02:21:00,52.6,47.5,30.00,SSW,203,0.0,0.0,83,0.00,,,0.05,WUHU216HW,2013-04-29 06:21:00,
2013-04-29 02:26:00,52.6,47.5,30.00,ESE,113,0.0,0.0,83,0.00,,,0.05,WUHU216HW,2013-04-29 06:26:00,
2013-04-29 02:31:00,52.6,47.3,30.00,ENE,68,0.0,0.0,82,0.00,,,0.05,WUHU216HW,2013-04-29 06:31:00,
2013-04-29 02:36:00,52.6,47.3,30.00,ESE,113,0.0,0.0,82,0.00,,,0.05,WUHU216HW,2013-04-29 06:36:00,
2013-04-29 02:41:00,52.4,47.3,29.99,ENE,68,0.0,0.0,83,0.00,,,0.05,WUHU216HW,2013-04-29 06:41:00,
2013-04-29 02:46:00,52.4,47.3,29.99,SSW,203,0.0,0.0,83,0.00,,,0.05,WUHU216HW,2013-04-29 06:46:00,
2013-04-29 02:51:00,52.4,47.3,30.00,South,180,0.0,0.0,83,0.00,,,0.05,WUHU216HW,2013-04-29 06:51:00,
2013-04-29 02:56:00,52.4,47.1,29.99,SSE,158,0.0,0.0,82,0.00,,,0.05,WUHU216HW,2013-04-29 06:56:00,
2013-04-29 03:01:00,52.4,47.1,29.99,ENE,68,0.0,0.0,82,0.00,,,0.05,WUHU216HW,2013-04-29 07:01:00,
2013-04-29 03:06:00,52.4,47.1,29.99,ENE,68,0.0,0.0,82,0.00,,,0.05,WUHU216HW,2013-04-29 07:06:00,
2013-04-29 03:11:00,52.4,47.1,29.99,SE,135,0.0,0.0,82,0.00,,,0.05,WUHU216HW,2013-04-29 07:11:00,
2013-04-29 03:16:00,52.4,47.1,29.99,SE,135,0.0,0.0,82,0.00,,,0.05,WUHU216HW,2013-04-29 07:16:00,
2013-04-29 03:21:00,52.4,47.1,29.99,SE,135,0.0,0.0,82,0.00,,,0.05,WUHU216HW,2013-04-29 07:21:00,
2013-04-29 03:26:00,52.4,46.7,29.99,SE,135,0.0,0.0,81,0.00,,,0.05,WUHU216HW,2013-04-29 07:26:00,
2013-04-29 03:31:00,52.4,47.1,29.99,SE,135,0.0,0.0,82,0.00,,,0.05,WUHU216HW,2013-04-29 07:31:00,
2013-04-29 03:36:00,52.4,47.1,29.99,SSE,158,0.0,0.0,82,0.00,,,0.05,WUHU216HW,2013-04-29 07:36:00,
2013-04-29 03:41:00,52.4,46.7,29.99,SE,135,0.0,0.0,81,0.00,,,0.05,WUHU216HW,2013-04-29 07:41:00,
2013-04-29 03:46:00,52.4,46.7,29.99,SSE,158,0.0,0.0,81,0.00,,,0.05,WUHU216HW,2013-04-29 07:46:00,
2013-04-29 03:51:00,52.4,46.7,29.99,SSE,158,0.0,0.0,81,0.01,,,0.06,WUHU216HW,2013-04-29 07:51:00,
2013-04-29 03:56:00,52.4,46.7,29.99,SSE,158,0.0,0.0,81,0.02,,,0.07,WUHU216HW,2013-04-29 07:56:00,
2013-04-29 04:01:00,52.2,46.9,29.99,SSE,158,0.0,0.0,82,0.03,,,0.07,WUHU216HW,2013-04-29 08:01:00,
2013-04-29 04:06:00,52.0,46.7,29.99,SSE,158,0.0,0.0,82,0.03,,,0.08,WUHU216HW,2013-04-29 08:06:00,
2013-04-29 04:11:00,51.8,46.8,29.99,SSE,158,0.0,0.0,83,0.03,,,0.08,WUHU216HW,2013-04-29 08:11:00,
2013-04-29 04:16:00,51.8,46.8,29.99,SSE,158,0.0,0.0,83,0.03,,,0.08,WUHU216HW,2013-04-29 08:16:00,
2013-04-29 04:21:00,51.7,46.6,29.99,SSE,158,0.0,0.0,83,0.03,,,0.08,WUHU216HW,2013-04-29 08:21:00,
2013-04-29 04:26:00,51.7,46.6,29.99,SSE,158,0.0,0.0,83,0.03,,,0.08,WUHU216HW,2013-04-29 08:26:00,
2013-04-29 04:31:00,51.7,47.3,29.99,NNE,23,0.0,0.0,85,0.03,,,0.08,WUHU216HW,2013-04-29 08:31:00,
2013-04-29 04:36:00,51.7,47.5,29.99,SW,225,0.0,0.0,86,0.03,,,0.08,WUHU216HW,2013-04-29 08:36:00,
2013-04-29 04:41:00,51.7,47.3,29.99,West,270,0.0,0.0,85,0.03,,,0.08,WUHU216HW,2013-04-29 08:41:00,
2013-04-29 04:46:00,51.8,47.4,29.99,SSW,203,0.0,0.0,85,0.02,,,0.08,WUHU216HW,2013-04-29 08:46:00,
2013-04-29 04:51:00,52.0,47.6,29.99,SW,225,0.0,0.0,85,0.01,,,0.08,WUHU216HW,2013-04-29 08:51:00,
2013-04-29 04:56:00,52.0,47.4,29.99,SSW,203,0.0,0.0,84,0.02,,,0.09,WUHU216HW,2013-04-29 08:56:00,
2013-04-29 05:01:00,52.0,47.6,29.99,SW,225,0.0,0.0,85,0.01,,,0.09,WUHU216HW,2013-04-29 09:01:00,
2013-04-29 05:06:00,52.0,47.6,29.99,West,270,0.0,0.0,85,0.01,,,0.09,WUHU216HW,2013-04-29 09:06:00,
2013-04-29 05:11:00,52.0,47.6,29.99,WSW,248,0.0,0.0,85,0.01,,,0.09,WUHU216HW,2013-04-29 09:11:00,
2013-04-29 05:16:00,52.0,47.6,29.99,ENE,68,0.0,0.0,85,0.01,,,0.09,WUHU216HW,2013-04-29 09:16:00,
2013-04-29 05:21:00,52.0,47.6,30.00,SSE,158,0.0,0.0,85,0.01,,,0.09,WUHU216HW,2013-04-29 09:21:00,
2013-04-29 05:26:00,51.8,47.4,30.00,SSE,158,0.0,0.0,85,0.01,,,0.09,WUHU216HW,2013-04-29 09:26:00,
2013-04-29 05:31:00,51.8,47.7,30.00,SSW,203,0.0,0.0,86,0.01,,,0.09,WUHU216HW,2013-04-29 09:31:00,
2013-04-29 05:36:00,51.8,47.4,30.00,SE,135,0.0,0.0,85,0.01,,,0.09,WUHU216HW,2013-04-29 09:36:00,
2013-04-29 05:41:00,51.8,47.4,30.00,SE,135,0.0,0.0,85,0.01,,,0.09,WUHU216HW,2013-04-29 09:41:00,
2013-04-29 05:46:00,51.8,47.2,30.00,SE,135,0.0,0.0,84,0.01,,,0.09,WUHU216HW,2013-04-29 09:46:00,
2013-04-29 05:51:00,51.8,47.2,30.00,SE,135,0.0,0.0,84,0.01,,,0.09,WUHU216HW,2013-04-29 09:51:00,
2013-04-29 05:56:00,51.8,47.2,30.00,SE,135,0.0,0.0,84,0.00,,,0.09,WUHU216HW,2013-04-29 09:56:00,
2013-04-29 06:01:00,51.8,47.2,30.01,SE,135,0.0,0.0,84,0.00,,,0.09,WUHU216HW,2013-04-29 10:01:00,
2013-04-29 06:06:00,51.8,47.2,30.01,SE,135,0.0,0.0,84,0.00,,,0.09,WUHU216HW,2013-04-29 10:06:00,
2013-04-29 06:11:00,51.8,47.2,30.01,SE,135,0.0,0.0,84,0.00,,,0.09,WUHU216HW,2013-04-29 10:11:00,
2013-04-29 06:16:00,51.8,47.2,30.01,SE,135,0.0,0.0,84,0.00,,,0.09,WUHU216HW,2013-04-29 10:16:00,
2013-04-29 06:21:00,51.8,47.2,30.01,SE,135,0.0,0.0,84,0.00,,,0.09,WUHU216HW,2013-04-29 10:21:00,
2013-04-29 06:26:00,51.8,47.2,30.01,SE,135,0.0,0.0,84,0.00,,,0.09,WUHU216HW,2013-04-29 10:26:00,
2013-04-29 06:31:00,51.8,47.2,30.01,SE,135,0.0,0.0,84,0.00,,,0.09,WUHU216HW,2013-04-29 10:31:00,
2013-04-29 06:36:00,51.8,47.4,30.01,SE,135,0.0,0.0,85,0.00,,,0.09,WUHU216HW,2013-04-29 10:36:00,
2013-04-29 06:41:00,52.0,47.4,30.01,SE,135,0.0,0.0,84,0.00,,,0.09,WUHU216HW,2013-04-29 10:41:00,
2013-04-29 06:46:00,52.0,47.6,30.01,SE,135,0.0,0.0,85,0.00,,,0.09,WUHU216HW,2013-04-29 10:46:00,
2013-04-29 06:51:00,52.0,47.6,30.01,SSW,203,0.0,0.0,85,0.00,,,0.09,WUHU216HW,2013-04-29 10:51:00,
2013-04-29 06:56:00,52.2,47.8,30.02,West,270,0.0,0.0,85,0.00,,,0.09,WUHU216HW,2013-04-29 10:56:00,
2013-04-29 07:01:00,52.2,48.1,30.02,SSW,203,0.0,0.0,86,0.00,,,0.09,WUHU216HW,2013-04-29 11:01:00,
2013-04-29 07:06:00,52.4,48.0,30.02,SSE,158,0.0,0.0,85,0.00,,,0.09,WUHU216HW,2013-04-29 11:06:00,
2013-04-29 07:11:00,52.7,48.3,30.02,West,270,0.0,0.0,85,0.00,,,0.09,WUHU216HW,2013-04-29 11:11:00,
2013-04-29 07:16:00,53.1,48.4,30.01,South,180,0.0,0.0,84,0.00,,,0.09,WUHU216HW,2013-04-29 11:16:00,
2013-04-29 07:21:00,53.3,48.6,30.01,South,180,0.0,0.0,84,0.00,,,0.09,WUHU216HW,2013-04-29 11:21:00,
2013-04-29 07:26:00,53.6,48.6,30.01,WSW,248,0.0,0.0,83,0.00,,,0.09,WUHU216HW,2013-04-29 11:26:00,
2013-04-29 07:31:00,54.0,48.6,30.01,SSE,158,0.0,0.0,82,0.00,,,0.09,WUHU216HW,2013-04-29 11:31:00,
2013-04-29 07:36:00,54.0,48.6,30.01,South,180,0.0,0.0,82,0.00,,,0.09,WUHU216HW,2013-04-29 11:36:00,
2013-04-29 07:41:00,54.2,48.8,30.01,WSW,248,0.0,0.0,82,0.00,,,0.09,WUHU216HW,2013-04-29 11:41:00,
2013-04-29 07:46:00,54.4,49.3,30.01,SW,225,0.0,0.0,83,0.00,,,0.09,WUHU216HW,2013-04-29 11:46:00,
2013-04-29 07:51:00,54.4,49.3,30.01,WSW,248,0.0,0.0,83,0.00,,,0.09,WUHU216HW,2013-04-29 11:51:00,
2013-04-29 07:56:00,54.4,49.3,30.02,SW,225,0.0,0.0,83,0.00,,,0.09,WUHU216HW,2013-04-29 11:56:00,
2013-04-29 08:01:00,54.5,49.4,30.02,SW,225,0.0,0.0,83,0.00,,,0.09,WUHU216HW,2013-04-29 12:01:00,
2013-04-29 08:06:00,54.7,49.6,30.02,SSE,158,0.0,0.0,83,0.00,,,0.09,WUHU216HW,2013-04-29 12:06:00,
2013-04-29 08:11:00,54.9,49.5,30.02,WSW,248,0.0,0.0,82,0.00,,,0.09,WUHU216HW,2013-04-29 12:11:00,
2013-04-29 08:16:00,55.1,49.7,30.02,WSW,248,0.0,0.0,82,0.00,,,0.09,WUHU216HW,2013-04-29 12:16:00,
2013-04-29 08:20:00,55.3,49.8,30.02,WSW,248,0.0,0.0,82,0.00,,,0.09,WUHU216HW,2013-04-29 12:20:00,
2013-04-29 08:26:00,55.4,49.7,30.03,NW,315,0.0,0.0,81,0.00,,,0.09,WUHU216HW,2013-04-29 12:26:00,
2013-04-29 08:31:00,55.6,49.9,30.03,WSW,248,0.0,0.0,81,0.00,,,0.09,WUHU216HW,2013-04-29 12:31:00,
2013-04-29 08:36:00,56.0,50.2,30.03,WSW,248,0.0,0.0,81,0.00,,,0.09,WUHU216HW,2013-04-29 12:36:00,
2013-04-29 08:41:00,56.2,50.4,30.03,SW,225,0.0,0.0,81,0.00,,,0.09,WUHU216HW,2013-04-29 12:41:00,
2013-04-29 08:45:00,56.3,50.2,30.03,WSW,248,0.0,0.0,80,0.00,,,0.09,WUHU216HW,2013-04-29 12:45:00,
2013-04-29 08:50:00,56.3,49.9,30.03,SW,225,0.0,0.0,79,0.00,,,0.09,WUHU216HW,2013-04-29 12:50:00,
2013-04-29 08:55:00,56.5,49.7,30.03,SE,135,0.0,0.0,78,0.00,,,0.09,WUHU216HW,2013-04-29 12:55:00,
2013-04-29 09:01:00,56.5,49.7,30.03,ESE,113,0.0,0.0,78,0.00,,,0.09,WUHU216HW,2013-04-29 13:01:00,
2013-04-29 09:05:00,56.7,49.9,30.03,SSE,158,0.0,0.0,78,0.00,,,0.09,WUHU216HW,2013-04-29 13:05:00,
2013-04-29 09:10:00,56.7,49.9,30.03,WSW,248,0.0,0.0,78,0.00,,,0.09,WUHU216HW,2013-04-29 13:10:00,
2013-04-29 09:15:00,57.1,49.9,30.03,South,180,0.0,0.0,77,0.00,,,0.09,WUHU216HW,2013-04-29 13:15:00,
2013-04-29 09:20:00,57.4,50.2,30.03,WSW,248,0.0,0.0,77,0.00,,,0.09,WUHU216HW,2013-04-29 13:20:00,
2013-04-29 09:25:00,57.6,50.4,30.03,South,180,0.0,0.0,77,0.00,,,0.09,WUHU216HW,2013-04-29 13:25:00,
2013-04-29 09:30:00,58.0,50.8,30.03,SW,225,0.0,0.0,77,0.00,,,0.09,WUHU216HW,2013-04-29 13:30:00,
2013-04-29 09:35:00,58.3,50.8,30.03,SSW,203,0.0,0.0,76,0.00,,,0.09,WUHU216HW,2013-04-29 13:35:00,
2013-04-29 09:40:00,58.5,50.6,30.03,West,270,0.0,0.0,75,0.00,,,0.09,WUHU216HW,2013-04-29 13:40:00,
2013-04-29 09:45:00,58.7,50.8,30.03,SW,225,0.0,0.0,75,0.00,,,0.09,WUHU216HW,2013-04-29 13:45:00,
2013-04-29 09:50:00,59.0,50.8,30.03,WSW,248,0.0,0.0,74,0.00,,,0.09,WUHU216HW,2013-04-29 13:50:00,
2013-04-29 09:55:00,59.4,51.5,30.03,SSW,203,0.0,0.0,75,0.00,,,0.09,WUHU216HW,2013-04-29 13:55:00,
2013-04-29 10:00:00,59.4,51.1,30.03,SSW,203,0.0,0.0,74,0.00,,,0.09,WUHU216HW,2013-04-29 14:00:00,
2013-04-29 10:05:00,59.9,51.7,30.03,SW,225,0.0,0.0,74,0.00,,,0.09,WUHU216HW,2013-04-29 14:05:00,
2013-04-29 10:11:00,60.3,52.0,30.03,SW,225,0.0,0.0,74,0.00,,,0.09,WUHU216HW,2013-04-29 14:11:00,
2013-04-29 10:16:00,60.1,51.5,30.03,WSW,248,0.0,0.0,73,0.00,,,0.09,WUHU216HW,2013-04-29 14:16:00,
2013-04-29 10:21:00,60.1,51.5,30.03,WSW,248,0.0,0.0,73,0.00,,,0.09,WUHU216HW,2013-04-29 14:21:00,
2013-04-29 10:26:00,59.8,51.1,30.03,SE,135,0.0,0.0,73,0.00,,,0.09,WUHU216HW,2013-04-29 14:26:00,
2013-04-29 10:31:00,59.8,51.1,30.03,SSW,203,0.0,0.0,73,0.00,,,0.09,WUHU216HW,2013-04-29 14:31:00,
2013-04-29 10:36:00,59.9,51.3,30.03,WSW,248,0.0,0.0,73,0.00,,,0.09,WUHU216HW,2013-04-29 14:36:00,
2013-04-29 10:41:00,60.1,51.5,30.03,SSE,158,0.0,0.0,73,0.00,,,0.09,WUHU216HW,2013-04-29 14:41:00,
2013-04-29 10:46:00,60.3,51.7,30.03,SW,225,0.0,0.0,73,0.00,,,0.09,WUHU216HW,2013-04-29 14:46:00,
2013-04-29 10:51:00,60.5,51.8,30.03,SW,225,0.0,0.0,73,0.00,,,0.09,WUHU216HW,2013-04-29 14:51:00,
2013-04-29 10:56:00,60.5,51.8,30.03,West,270,0.0,0.0,73,0.00,,,0.09,WUHU216HW,2013-04-29 14:56:00,
2013-04-29 11:01:00,60.5,51.8,30.03,WSW,248,0.0,0.0,73,0.00,,,0.09,WUHU216HW,2013-04-29 15:01:00,
2013-04-29 11:06:00,60.7,52.0,30.03,SW,225,0.0,0.0,73,0.00,,,0.09,WUHU216HW,2013-04-29 15:06:00,
2013-04-29 11:11:00,60.7,52.0,30.04,SW,225,0.0,0.0,73,0.00,,,0.09,WUHU216HW,2013-04-29 15:11:00,
2013-04-29 11:16:00,60.7,51.7,30.03,WSW,248,0.0,0.0,72,0.00,,,0.09,WUHU216HW,2013-04-29 15:16:00,
2013-04-29 11:21:00,60.8,52.2,30.03,WSW,248,0.0,0.0,73,0.00,,,0.09,WUHU216HW,2013-04-29 15:21:00,
2013-04-29 11:26:00,60.8,51.8,30.04,SW,225,0.0,0.0,72,0.00,,,0.09,WUHU216HW,2013-04-29 15:26:00,
2013-04-29 11:31:00,60.8,51.5,30.04,WSW,248,0.0,0.0,71,0.00,,,0.09,WUHU216HW,2013-04-29 15:31:00,
2013-04-29 11:36:00,60.8,51.5,30.04,SSW,203,0.0,0.0,71,0.00,,,0.09,WUHU216HW,2013-04-29 15:36:00,
2013-04-29 11:41:00,60.8,51.8,30.04,West,270,0.0,0.0,72,0.00,,,0.09,WUHU216HW,2013-04-29 15:41:00,
2013-04-29 11:46:00,61.0,52.0,30.04,SW,225,0.0,0.0,72,0.00,,,0.09,WUHU216HW,2013-04-29 15:46:00,
2013-04-29 11:51:00,61.2,52.2,30.04,SSW,203,0.0,0.0,72,0.00,,,0.09,WUHU216HW,2013-04-29 15:51:00,
2013-04-29 11:56:00,61.6,52.1,30.04,South,180,0.0,0.0,71,0.00,,,0.09,WUHU216HW,2013-04-29 15:56:00,
2013-04-29 12:01:00,61.7,52.3,30.04,SW,225,0.0,0.0,71,0.00,,,0.09,WUHU216HW,2013-04-29 16:01:00,
2013-04-29 12:06:00,61.9,52.8,30.04,SW,225,0.0,0.0,72,0.00,,,0.09,WUHU216HW,2013-04-29 16:06:00,
2013-04-29 12:11:00,62.3,52.7,30.04,WSW,248,0.0,0.0,71,0.00,,,0.09,WUHU216HW,2013-04-29 16:11:00,
2013-04-29 12:16:00,62.3,52.7,30.04,SW,225,0.0,0.0,71,0.00,,,0.09,WUHU216HW,2013-04-29 16:16:00,
2013-04-29 12:21:00,62.5,52.9,30.04,SW,225,0.0,0.0,71,0.00,,,0.09,WUHU216HW,2013-04-29 16:21:00,
2013-04-29 12:26:00,62.6,52.7,30.04,SW,225,0.0,0.0,70,0.00,,,0.09,WUHU216HW,2013-04-29 16:26:00,
2013-04-29 12:31:00,62.8,52.9,30.04,SSW,203,0.0,0.0,70,0.00,,,0.09,WUHU216HW,2013-04-29 16:31:00,
2013-04-29 12:36:00,62.8,52.9,30.04,WSW,248,0.0,0.0,70,0.00,,,0.09,WUHU216HW,2013-04-29 16:36:00,
2013-04-29 12:41:00,62.6,52.7,30.04,SW,225,0.0,0.0,70,0.00,,,0.09,WUHU216HW,2013-04-29 16:41:00,
2013-04-29 12:46:00,62.6,52.7,30.04,WSW,248,0.0,0.0,70,0.00,,,0.09,WUHU216HW,2013-04-29 16:46:00,
2013-04-29 12:51:00,62.5,52.6,30.04,SW,225,0.0,0.0,70,0.00,,,0.09,WUHU216HW,2013-04-29 16:51:00,
2013-04-29 12:56:00,62.5,52.6,30.04,SW,225,0.0,0.0,70,0.00,,,0.09,WUHU216HW,2013-04-29 16:56:00,
2013-04-29 13:01:00,62.5,52.6,30.04,WSW,248,0.0,0.0,70,0.00,,,0.09,WUHU216HW,2013-04-29 17:01:00,
2013-04-29 13:06:00,62.6,52.7,30.04,SW,225,0.0,0.0,70,0.00,,,0.09,WUHU216HW,2013-04-29 17:06:00,
2013-04-29 13:11:00,62.6,52.7,30.03,SW,225,0.0,0.0,70,0.00,,,0.09,WUHU216HW,2013-04-29 17:11:00,
2013-04-29 13:16:00,62.8,52.9,30.03,WSW,248,0.0,0.0,70,0.00,,,0.09,WUHU216HW,2013-04-29 17:16:00,
2013-04-29 13:21:00,63.0,53.1,30.03,West,270,0.0,0.0,70,0.00,,,0.09,WUHU216HW,2013-04-29 17:21:00,
2013-04-29 13:26:00,63.0,52.7,30.03,SW,225,0.0,0.0,69,0.00,,,0.09,WUHU216HW,2013-04-29 17:26:00,
2013-04-29 13:31:00,62.8,52.9,30.03,SW,225,0.0,0.0,70,0.00,,,0.09,WUHU216HW,2013-04-29 17:31:00,
2013-04-29 13:36:00,62.8,52.9,30.03,SW,225,0.0,0.0,70,0.00,,,0.09,WUHU216HW,2013-04-29 17:36:00,
2013-04-29 13:41:00,62.8,52.9,30.03,WSW,248,0.0,0.0,70,0.00,,,0.09,WUHU216HW,2013-04-29 17:41:00,
2013-04-29 13:46:00,62.5,52.2,30.03,SW,225,0.0,0.0,69,0.00,,,0.09,WUHU216HW,2013-04-29 17:46:00,
2013-04-29 13:51:00,62.3,52.4,30.03,WSW,248,0.0,0.0,70,0.00,,,0.09,WUHU216HW,2013-04-29 17:51:00,
2013-04-29 13:56:00,62.1,52.3,30.03,SW,225,0.0,0.0,70,0.00,,,0.09,WUHU216HW,2013-04-29 17:56:00,
2013-04-29 14:01:00,62.5,52.9,30.03,North,0,0.0,0.0,71,0.00,,,0.09,WUHU216HW,2013-04-29 18:01:00,
2013-04-29 14:06:00,62.8,53.3,30.03,ESE,113,0.0,0.0,71,0.00,,,0.09,WUHU216HW,2013-04-29 18:06:00,
2013-04-29 14:11:00,63.0,53.1,30.03,South,180,0.0,0.0,70,0.00,,,0.09,WUHU216HW,2013-04-29 18:11:00,
2013-04-29 14:16:00,63.4,53.5,30.03,WNW,293,0.0,0.0,70,0.00,,,0.09,WUHU216HW,2013-04-29 18:16:00,
2013-04-29 14:21:00,63.9,54.0,30.03,SE,135,0.0,0.0,70,0.00,,,0.09,WUHU216HW,2013-04-29 18:21:00,
2013-04-29 14:26:00,64.4,54.5,30.03,SW,225,0.0,0.0,70,0.00,,,0.09,WUHU216HW,2013-04-29 18:26:00,
2013-04-29 14:31:00,65.0,54.6,30.03,ESE,113,0.0,0.0,69,0.00,,,0.09,WUHU216HW,2013-04-29 18:31:00,
2013-04-29 14:36:00,65.2,54.4,30.03,South,180,0.0,0.0,68,0.00,,,0.09,WUHU216HW,2013-04-29 18:36:00,
2013-04-29 14:41:00,65.2,53.9,30.03,SW,225,0.0,0.0,67,0.00,,,0.09,WUHU216HW,2013-04-29 18:41:00,
2013-04-29 14:46:00,65.2,53.9,30.03,SE,135,0.0,0.0,67,0.00,,,0.09,WUHU216HW,2013-04-29 18:46:00,
2013-04-29 14:51:00,65.0,53.7,30.03,SSW,203,0.0,0.0,67,0.00,,,0.09,WUHU216HW,2013-04-29 18:51:00,
2013-04-29 14:56:00,65.3,54.1,30.03,WSW,248,0.0,0.0,67,0.00,,,0.09,WUHU216HW,2013-04-29 18:56:00,
2013-04-29 15:01:00,65.3,53.6,30.03,West,270,0.0,0.0,66,0.00,,,0.09,WUHU216HW,2013-04-29 19:01:00,
2013-04-29 15:06:00,65.2,53.9,30.03,SW,225,0.0,0.0,67,0.00,,,0.09,WUHU216HW,2013-04-29 19:06:00,
2013-04-29 15:11:00,65.2,53.9,30.03,SE,135,0.0,0.0,67,0.00,,,0.09,WUHU216HW,2013-04-29 19:11:00,
2013-04-29 15:16:00,65.3,54.1,30.03,SW,225,0.0,0.0,67,0.00,,,0.09,WUHU216HW,2013-04-29 19:16:00,
2013-04-29 15:21:00,65.3,54.1,30.03,WSW,248,0.0,0.0,67,0.00,,,0.09,WUHU216HW,2013-04-29 19:21:00,
2013-04-29 15:26:00,65.3,53.6,30.03,SSE,158,0.0,0.0,66,0.00,,,0.09,WUHU216HW,2013-04-29 19:26:00,
2013-04-29 15:31:00,65.2,53.5,30.03,SSW,203,0.0,0.0,66,0.00,,,0.09,WUHU216HW,2013-04-29 19:31:00,
2013-04-29 15:36:00,65.0,53.7,30.03,SW,225,0.0,0.0,67,0.00,,,0.09,WUHU216HW,2013-04-29 19:36:00,
2013-04-29 15:41:00,64.6,53.4,30.02,SW,225,0.0,0.0,67,0.00,,,0.09,WUHU216HW,2013-04-29 19:41:00,
2013-04-29 15:46:00,64.4,53.3,30.02,WSW,248,0.0,0.0,67,0.00,,,0.09,WUHU216HW,2013-04-29 19:46:00,
2013-04-29 15:51:00,64.4,53.6,30.02,WSW,248,0.0,0.0,68,0.00,,,0.09,WUHU216HW,2013-04-29 19:51:00,
2013-04-29 15:56:00,64.4,53.6,30.02,SW,225,0.0,0.0,68,0.00,,,0.09,WUHU216HW,2013-04-29 19:56:00,
2013-04-29 16:01:00,64.8,54.0,30.02,SW,225,0.0,0.0,68,0.00,,,0.09,WUHU216HW,2013-04-29 20:01:00,
2013-04-29 16:06:00,65.0,54.2,30.02,SW,225,0.0,0.0,68,0.00,,,0.09,WUHU216HW,2013-04-29 20:06:00,
2013-04-29 16:11:00,65.2,53.9,30.02,SSW,203,0.0,0.0,67,0.00,,,0.09,WUHU216HW,2013-04-29 20:11:00,
2013-04-29 16:16:00,65.2,53.9,30.02,WSW,248,0.0,0.0,67,0.00,,,0.09,WUHU216HW,2013-04-29 20:16:00,
2013-04-29 16:21:00,65.3,54.6,30.02,SSW,203,0.0,0.0,68,0.00,,,0.09,WUHU216HW,2013-04-29 20:21:00,
2013-04-29 16:26:00,65.7,54.8,30.02,SW,225,0.0,0.0,68,0.00,,,0.09,WUHU216HW,2013-04-29 20:26:00,
2013-04-29 16:31:00,66.1,54.7,30.02,SW,225,0.0,0.0,67,0.00,,,0.09,WUHU216HW,2013-04-29 20:31:00,
2013-04-29 16:36:00,66.2,54.6,30.02,WSW,248,0.0,0.0,66,0.00,,,0.09,WUHU216HW,2013-04-29 20:36:00,
2013-04-29 16:41:00,66.2,54.1,30.02,SSW,203,0.0,0.0,65,0.00,,,0.09,WUHU216HW,2013-04-29 20:41:00,
2013-04-29 16:46:00,65.9,54.2,30.02,WSW,248,0.0,0.0,66,0.00,,,0.09,WUHU216HW,2013-04-29 20:46:00,
2013-04-29 16:51:00,65.5,53.8,30.02,SW,225,0.0,0.0,66,0.00,,,0.09,WUHU216HW,2013-04-29 20:51:00,
2013-04-29 16:56:00,65.2,53.5,30.02,SW,225,0.0,0.0,66,0.00,,,0.09,WUHU216HW,2013-04-29 20:56:00,
2013-04-29 17:01:00,65.0,53.7,30.02,WSW,248,0.0,0.0,67,0.00,,,0.09,WUHU216HW,2013-04-29 21:01:00,
2013-04-29 17:06:00,64.8,53.6,30.02,SW,225,0.0,0.0,67,0.00,,,0.09,WUHU216HW,2013-04-29 21:06:00,
2013-04-29 17:11:00,64.8,54.0,30.02,SW,225,0.0,0.0,68,0.00,,,0.09,WUHU216HW,2013-04-29 21:11:00,
2013-04-29 17:16:00,65.0,54.2,30.02,SW,225,0.0,0.0,68,0.00,,,0.09,WUHU216HW,2013-04-29 21:16:00,
2013-04-29 17:21:00,65.0,54.2,30.02,SSW,203,0.0,0.0,68,0.00,,,0.09,WUHU216HW,2013-04-29 21:21:00,
2013-04-29 17:26:00,65.0,54.2,30.02,SW,225,0.0,0.0,68,0.00,,,0.09,WUHU216HW,2013-04-29 21:26:00,
2013-04-29 17:31:00,64.8,54.0,30.02,WSW,248,0.0,0.0,68,0.00,,,0.09,WUHU216HW,2013-04-29 21:31:00,
2013-04-29 17:36:00,64.8,54.0,30.03,West,270,0.0,0.0,68,0.00,,,0.09,WUHU216HW,2013-04-29 21:36:00,
2013-04-29 17:41:00,64.8,54.0,30.03,WSW,248,0.0,0.0,68,0.00,,,0.09,WUHU216HW,2013-04-29 21:41:00,
2013-04-29 17:46:00,64.8,54.0,30.03,West,270,0.0,0.0,68,0.00,,,0.09,WUHU216HW,2013-04-29 21:46:00,
2013-04-29 17:51:00,64.6,53.8,30.03,WSW,248,0.0,0.0,68,0.00,,,0.09,WUHU216HW,2013-04-29 21:51:00,
2013-04-29 17:56:00,64.6,53.8,30.03,SW,225,0.0,0.0,68,0.00,,,0.09,WUHU216HW,2013-04-29 21:56:00,
2013-04-29 18:01:00,64.4,53.6,30.03,SW,225,0.0,0.0,68,0.00,,,0.09,WUHU216HW,2013-04-29 22:01:00,
2013-04-29 18:06:00,64.1,53.3,30.03,SW,225,0.0,0.0,68,0.00,,,0.09,WUHU216HW,2013-04-29 22:06:00,
2013-04-29 18:11:00,63.7,53.8,30.03,SW,225,0.0,0.0,70,0.00,,,0.09,WUHU216HW,2013-04-29 22:11:00,
2013-04-29 18:16:00,63.0,54.2,30.03,ENE,68,0.0,0.0,73,0.00,,,0.09,WUHU216HW,2013-04-29 22:16:00,
2013-04-29 18:21:00,62.6,53.5,30.03,ENE,68,0.0,0.0,72,0.00,,,0.09,WUHU216HW,2013-04-29 22:21:00,
2013-04-29 18:26:00,62.3,53.5,30.03,ESE,113,0.0,0.0,73,0.00,,,0.09,WUHU216HW,2013-04-29 22:26:00,
2013-04-29 18:31:00,61.7,53.7,30.03,ENE,68,0.0,0.0,75,0.00,,,0.09,WUHU216HW,2013-04-29 22:31:00,
2013-04-29 18:36:00,61.2,54.0,30.03,ENE,68,0.0,0.0,77,0.00,,,0.09,WUHU216HW,2013-04-29 22:36:00,
2013-04-29 18:41:00,60.8,53.6,30.04,ENE,68,0.0,0.0,77,0.00,,,0.09,WUHU216HW,2013-04-29 22:41:00,
2013-04-29 18:46:00,60.5,53.3,30.04,ENE,68,0.0,0.0,77,0.00,,,0.09,WUHU216HW,2013-04-29 22:46:00,
2013-04-29 18:51:00,60.3,53.1,30.04,ENE,68,0.0,0.0,77,0.00,,,0.09,WUHU216HW,2013-04-29 22:51:00,
2013-04-29 18:56:00,60.1,52.9,30.04,ENE,68,0.0,0.0,77,0.00,,,0.09,WUHU216HW,2013-04-29 22:56:00,
2013-04-29 19:01:00,60.1,53.3,30.04,East,90,0.0,0.0,78,0.00,,,0.09,WUHU216HW,2013-04-29 23:01:00,
2013-04-29 19:06:00,60.1,53.3,30.03,East,90,0.0,0.0,78,0.00,,,0.09,WUHU216HW,2013-04-29 23:06:00,
2013-04-29 19:11:00,60.1,53.3,30.04,East,90,0.0,0.0,78,0.00,,,0.09,WUHU216HW,2013-04-29 23:11:00,
2013-04-29 19:16:00,60.1,53.6,30.04,ENE,68,0.0,0.0,79,0.00,,,0.09,WUHU216HW,2013-04-29 23:16:00,
2013-04-29 19:21:00,59.9,53.1,30.04,East,90,0.0,0.0,78,0.00,,,0.09,WUHU216HW,2013-04-29 23:21:00,
2013-04-29 19:26:00,59.8,53.3,30.04,East,90,0.0,0.0,79,0.00,,,0.09,WUHU216HW,2013-04-29 23:26:00,
2013-04-29 19:31:00,59.8,53.3,30.04,East,90,0.0,0.0,79,0.00,,,0.09,WUHU216HW,2013-04-29 23:31:00,
2013-04-29 19:36:00,59.8,53.3,30.04,East,90,0.0,0.0,79,0.00,,,0.09,WUHU216HW,2013-04-29 23:36:00,
2013-04-29 19:41:00,59.6,53.1,30.04,East,90,0.0,0.0,79,0.00,,,0.09,WUHU216HW,2013-04-29 23:41:00,
2013-04-29 19:46:00,59.4,52.9,30.04,East,90,0.0,0.0,79,0.00,,,0.09,WUHU216HW,2013-04-29 23:46:00,
2013-04-29 19:51:00,59.4,52.9,30.04,East,90,0.0,0.0,79,0.00,,,0.09,WUHU216HW,2013-04-29 23:51:00,
2013-04-29 19:56:00,59.4,52.6,30.05,East,90,0.0,0.0,78,0.00,,,0.09,WUHU216HW,2013-04-29 23:56:00,
2013-04-29 20:01:00,59.4,52.6,30.04,East,90,0.0,0.0,78,0.00,,,0.09,WUHU216HW,2013-04-30 00:01:00,
2013-04-29 20:06:00,59.2,52.7,30.05,East,90,0.0,0.0,79,0.00,,,0.09,WUHU216HW,2013-04-30 00:06:00,
2013-04-29 20:11:00,59.2,52.7,30.05,East,90,0.0,0.0,79,0.00,,,0.09,WUHU216HW,2013-04-30 00:11:00,
2013-04-29 20:16:00,59.0,52.2,30.05,East,90,0.0,0.0,78,0.00,,,0.09,WUHU216HW,2013-04-30 00:16:00,
2013-04-29 20:21:00,59.0,52.6,30.05,East,90,0.0,0.0,79,0.00,,,0.09,WUHU216HW,2013-04-30 00:21:00,
2013-04-29 20:26:00,59.0,52.6,30.05,East,90,0.0,0.0,79,0.00,,,0.09,WUHU216HW,2013-04-30 00:26:00,
2013-04-29 20:31:00,59.0,52.2,30.06,East,90,0.0,0.0,78,0.00,,,0.09,WUHU216HW,2013-04-30 00:31:00,
2013-04-29 20:36:00,58.9,52.0,30.06,East,90,0.0,0.0,78,0.00,,,0.09,WUHU216HW,2013-04-30 00:36:00,
2013-04-29 20:41:00,58.9,52.4,30.06,East,90,0.0,0.0,79,0.00,,,0.09,WUHU216HW,2013-04-30 00:41:00,
2013-04-29 20:46:00,58.7,52.6,30.06,East,90,0.0,0.0,80,0.00,,,0.09,WUHU216HW,2013-04-30 00:46:00,
2013-04-29 20:51:00,58.7,52.6,30.06,East,90,0.0,0.0,80,0.00,,,0.09,WUHU216HW,2013-04-30 00:51:00,
2013-04-29 20:56:00,58.5,52.4,30.06,East,90,0.0,0.0,80,0.00,,,0.09,WUHU216HW,2013-04-30 00:56:00,
2013-04-29 21:01:00,58.3,52.6,30.06,East,90,0.0,0.0,81,0.00,,,0.09,WUHU216HW,2013-04-30 01:01:00,
2013-04-29 21:06:00,58.3,52.6,30.06,East,90,0.0,0.0,81,0.00,,,0.09,WUHU216HW,2013-04-30 01:06:00,
2013-04-29 21:11:00,58.3,52.2,30.07,East,90,0.0,0.0,80,0.00,,,0.09,WUHU216HW,2013-04-30 01:11:00,
2013-04-29 21:16:00,58.3,52.6,30.06,East,90,0.0,0.0,81,0.00,,,0.09,WUHU216HW,2013-04-30 01:16:00,
2013-04-29 21:21:00,58.3,52.2,30.07,East,90,0.0,0.0,80,0.00,,,0.09,WUHU216HW,2013-04-30 01:21:00,
2013-04-29 21:26:00,58.3,52.2,30.07,East,90,0.0,0.0,80,0.00,,,0.09,WUHU216HW,2013-04-30 01:26:00,
2013-04-29 21:31:00,58.1,52.0,30.07,East,90,0.0,0.0,80,0.00,,,0.09,WUHU216HW,2013-04-30 01:31:00,
2013-04-29 21:36:00,58.1,52.0,30.07,East,90,0.0,0.0,80,0.00,,,0.09,WUHU216HW,2013-04-30 01:36:00,
2013-04-29 21:41:00,58.0,52.2,30.07,East,90,0.0,0.0,81,0.00,,,0.09,WUHU216HW,2013-04-30 01:41:00,
2013-04-29 21:46:00,58.0,52.2,30.07,East,90,0.0,0.0,81,0.00,,,0.09,WUHU216HW,2013-04-30 01:46:00,
2013-04-29 21:51:00,58.0,52.2,30.08,East,90,0.0,0.0,81,0.00,,,0.09,WUHU216HW,2013-04-30 01:51:00,
2013-04-29 21:56:00,58.0,52.2,30.07,East,90,0.0,0.0,81,0.00,,,0.09,WUHU216HW,2013-04-30 01:56:00,
2013-04-29 22:01:00,58.0,52.2,30.07,East,90,0.0,0.0,81,0.00,,,0.09,WUHU216HW,2013-04-30 02:01:00,
2013-04-29 22:06:00,58.0,52.2,30.07,East,90,0.0,0.0,81,0.00,,,0.09,WUHU216HW,2013-04-30 02:06:00,
2013-04-29 22:11:00,58.0,52.2,30.07,East,90,0.0,0.0,81,0.00,,,0.09,WUHU216HW,2013-04-30 02:11:00,
2013-04-29 22:16:00,58.0,52.2,30.07,SSE,158,0.0,0.0,81,0.00,,,0.09,WUHU216HW,2013-04-30 02:16:00,
2013-04-29 22:21:00,58.0,51.8,30.08,SW,225,0.0,0.0,80,0.00,,,0.09,WUHU216HW,2013-04-30 02:21:00,
2013-04-29 22:26:00,58.0,51.8,30.07,West,270,0.0,0.0,80,0.00,,,0.09,WUHU216HW,2013-04-30 02:26:00,
2013-04-29 22:31:00,58.1,52.0,30.07,SW,225,0.0,0.0,80,0.00,,,0.09,WUHU216HW,2013-04-30 02:31:00,
2013-04-29 22:36:00,58.1,52.0,30.07,ENE,68,0.0,0.0,80,0.00,,,0.09,WUHU216HW,2013-04-30 02:36:00,
2013-04-29 22:41:00,58.1,51.7,30.07,ENE,68,0.0,0.0,79,0.00,,,0.09,WUHU216HW,2013-04-30 02:41:00,
2013-04-29 22:46:00,58.1,51.7,30.07,ENE,68,0.0,0.0,79,0.00,,,0.09,WUHU216HW,2013-04-30 02:46:00,
2013-04-29 22:51:00,58.1,51.7,30.07,ENE,68,0.0,0.0,79,0.00,,,0.09,WUHU216HW,2013-04-30 02:51:00,
2013-04-29 22:56:00,58.0,51.5,30.07,ENE,68,0.0,0.0,79,0.00,,,0.09,WUHU216HW,2013-04-30 02:56:00,
2013-04-29 23:01:00,58.0,51.5,30.07,ENE,68,0.0,0.0,79,0.00,,,0.09,WUHU216HW,2013-04-30 03:01:00,
2013-04-29 23:06:00,58.0,51.5,30.07,East,90,0.0,0.0,79,0.00,,,0.09,WUHU216HW,2013-04-30 03:06:00,
2013-04-29 23:11:00,58.0,51.5,30.07,East,90,0.0,0.0,79,0.00,,,0.09,WUHU216HW,2013-04-30 03:11:00,
2013-04-29 23:16:00,57.8,51.3,30.07,East,90,0.0,0.0,79,0.00,,,0.09,WUHU216HW,2013-04-30 03:16:00,
2013-04-29 23:21:00,57.8,51.3,30.07,East,90,0.0,0.0,79,0.00,,,0.09,WUHU216HW,2013-04-30 03:21:00,
2013-04-29 23:26:00,57.6,51.1,30.07,East,90,0.0,0.0,79,0.00,,,0.09,WUHU216HW,2013-04-30 03:26:00,
2013-04-29 23:31:00,57.6,51.1,30.07,East,90,0.0,0.0,79,0.00,,,0.09,WUHU216HW,2013-04-30 03:31:00,
2013-04-29 23:36:00,57.4,50.9,30.07,East,90,0.0,0.0,79,0.00,,,0.09,WUHU216HW,2013-04-30 03:36:00,
2013-04-29 23:41:00,57.2,50.8,30.07,East,90,0.0,0.0,79,0.00,,,0.09,WUHU216HW,2013-04-30 03:41:00,
2013-04-29 23:46:00,57.2,50.8,30.07,East,90,0.0,0.0,79,0.00,,,0.09,WUHU216HW,2013-04-30 03:46:00,
2013-04-29 23:51:00,57.1,50.6,30.07,East,90,0.0,0.0,79,0.00,,,0.09,WUHU216HW,2013-04-30 03:51:00,
2013-04-29 23:56:00,56.7,50.2,30.07,East,90,0.0,0.0,79,0.00,,,0.09,WUHU216HW,2013-04-30 03:56:00,